This demonstration page uses our WeatherBlox Daily Observations layout. Learn more.

Left ArrowRight Arrow

38.83388, -104.82136

Hourly Observations for May 20, 2018

Temp ( °F °C ) Dew Point ( °F °C ) Humidity (%) Winds ( mph kmh ) Pressure ( in mb ) Visibility ( mi km ) Precip ( " mm )
12:32 am 00:32 Cloudy with Drizzle 41 5 39 4 93 93 SSE 5 7 29.88 1012 8 13 0.00 0.00
12:52 am 00:52 Cloudy with Mist and Fog 41 5 39 4 93 93 Calm 29.89 1012 4 6 0.00 0.00
12:58 am 00:58 Cloudy with Mist and Fog 40 4.7 40 4.4 98 98 N 6 9 29.89 1012 3 5 0.00 0.00
1:01 am 01:01 Cloudy with Light Showers 41 5 39 4 93 93 N 7 11 29.89 1012 3 4 0.00 0.00
1:31 am 01:31 Cloudy with Light Showers 41 5 39 4 93 93 SE 6 9 29.88 1012 2 3 0.00 0.00
1:36 am 01:36 Cloudy with Light Showers 41 5 39 4 93 93 SE 5 7 29.88 1012 2 3 0.00 0.00
1:51 am 01:51 Mostly Cloudy with Light Showers 41 5 39 4 93 93 Calm 29.86 1011 3 5 0.00 0.00
1:58 am 01:58 Mostly Cloudy with Light Showers 40 4.3 39 4.1 99 99 ENE 3 6 29.85 1011 1 2 0.00 0.00
2:56 am 02:56 Mostly Cloudy with Fog 39 4 39 4 100 100 SSE 3 6 29.87 1011 5 8 0.00 0.00
2:58 am 02:58 Mostly Cloudy with Fog 39 4 39 3.9 99 99 SE 3 6 29.87 1011 5 8 0.01 0.25
3:22 am 03:22 Mostly Cloudy with Light Showers 39 4 39 4 100 100 SE 6 9 29.88 1012 1 2 0.00 0.00
3:58 am 03:58 Mostly Cloudy with Light Showers 38 3.4 38 3.4 100 100 SSE 5 7 29.88 1012 0 0 0.00 0.00
4:22 am 04:22 Mostly Cloudy with Fog 39 4 39 4 100 100 SSE 5 7 29.85 1011 1 2 0.00 0.00
4:58 am 04:58 Mostly Cloudy with Fog 39 3.7 39 3.8 100 100 Calm 29.88 1012 5 8 0.00 0.00
5:11 am 05:11 Mostly Cloudy with Light Rain 39 4 39 4 100 100 SE 6 9 29.90 1012 5 8 0.00 0.00
5:58 am 05:58 Mostly Cloudy with Light Rain 39 4 39 4 100 100 SE 6 9 29.91 1013 1 2 0.01 0.25
6:58 am 06:58 Mostly Cloudy with Light Rain 39 3.9 39 3.9 100 100 SE 7 11 29.93 1013 1 2 0.05 1.27
7:58 am 07:58 Mostly Cloudy with Light Rain 39 3.7 39 3.7 100 100 SE 9 15 29.94 1014 1 2 0.04 1.02
8:58 am 08:58 Mostly Cloudy with Light Rain 39 4.1 39 4.1 100 100 SE 9 15 29.96 1014 0 0 0.04 1.02
9:46 am 09:46 Mostly Cloudy with Light Rain 39 4 39 4 100 100 SE 8 13 29.93 1014 0 0 0.00 0.00
9:58 am 09:58 Mostly Cloudy with Drizzle 40 4.4 40 4.5 100 100 SE 8 13 29.92 1013 1 2 0.02 0.51
10:15 am 10:15 Mostly Cloudy with Light Rain 41 5 41 5 100 100 SE 12 19 29.92 1013 1 2 0.00 0.00
10:44 am 10:44 Mostly Cloudy 41 5 41 5 100 100 SSE 12 19 29.91 1013 1 2 0.00 0.00
10:45 am 10:45 Mostly Cloudy with Light Rain 41 5 41 5 100 100 SE 13 20 29.91 1013 1 2 0.00 0.00
10:58 am 10:58 Mostly Cloudy with Light Rain 41 4.9 41 4.9 100 100 SSE 12 19 29.91 1013 1 2 0.02 0.51
11:05 am 11:05 Mostly Cloudy 41 5 41 5 100 100 SSE 10 17 29.91 1013 1 2 0.00 0.00
11:06 am 11:06 Mostly Cloudy with Light Rain 41 5 41 5 100 100 SSE 10 17 29.91 1013 1 2 0.00 0.00
11:58 am 11:58 Mostly Cloudy with Light Rain 42 5.6 42 5.7 100 100 SE 9 15 29.88 1012 1 2 0.00 0.00
12:43 pm 12:43 Mostly Cloudy with Drizzle 43 6 43 6 100 100 SSE 12 19 29.88 1012 7 11 0.00 0.00
12:58 pm 12:58 Mostly Cloudy with Drizzle 43 6.3 43 6.2 99 99 SE 13 20 29.88 1012 1 2 0.01 0.25
1:13 pm 13:13 Mostly Cloudy with Drizzle 43 6 43 6 100 100 SE 9 15 29.86 1011 1 2 0.00 0.00
1:21 pm 13:21 Mostly Cloudy with Mist and Fog 45 7 45 7 100 100 SE 9 15 29.85 1011 3 5 0.00 0.00
1:58 pm 13:58 Cloudy 45 7 44 6.7 98 98 SSE 13 20 29.83 1010 10 16 0.00 0.00
2:08 pm 14:08 Cloudy 45 7 45 7 100 100 SSE 9 15 29.83 1010 10 16 0.00 0.00
2:18 pm 14:18 Cloudy 45 7 45 7 100 100 SSE 12 19 29.83 1010 10 16 0.00 0.00
2:28 pm 14:28 Cloudy 45 7 45 7 100 100 SSE 9 15 29.83 1010 10 16 0.00 0.00
2:53 pm 14:53 Cloudy 46 8 46 8 100 100 SSE 9 15 29.83 1010 10 16 0.00 0.00
2:58 pm 14:58 Cloudy 46 8 46 7.8 99 99 SSE 12 19 29.83 1010 10 16 0.00 0.00
3:58 pm 15:58 Mostly Cloudy 50 9.9 43 6.3 79 79 SSE 10 17 29.79 1009 10 16 0.00 0.00
3:59 pm 15:59 Mostly Cloudy with Thunderstorms 50 10 45 7 82 82 SE 9 15 29.79 1009 10 16 0.00 0.00
4:13 pm 16:13 Mostly Cloudy 50 10 43 6 76 76 SSE 10 17 29.80 1009 10 16 0.00 0.00
4:58 pm 16:58 Mostly Cloudy 50 10 44 6.5 79 79 SE 6 9 29.82 1010 10 16 0.00 0.00
5:18 pm 17:18 Mostly Cloudy 50 10 43 6 76 76 SSE 6 9 29.84 1010 10 16 0.00 0.00
5:23 pm 17:23 Mostly Cloudy 50 10 43 6 76 76 S 7 11 29.84 1010 10 16 0.00 0.00
5:26 pm 17:26 Mostly Cloudy with Light Rain 50 10 43 6 76 76 S 8 13 29.84 1010 10 16 0.00 0.00
5:41 pm 17:41 Mostly Cloudy 50 10 43 6 76 76 SSE 5 7 29.84 1010 10 16 0.00 0.00
5:58 pm 17:58 Mostly Cloudy 50 9.8 44 6.5 80 80 Calm 29.84 1010 10 16 0.00 0.00
6:15 pm 18:15 Mostly Cloudy with Light Rain 50 10 43 6 76 76 NNW 5 7 29.84 1010 10 16 0.00 0.00
6:54 pm 18:54 Mostly Cloudy 50 10 43 6 76 76 NNW 5 7 29.82 1010 10 16 0.00 0.00
6:58 pm 18:58 Mostly Cloudy 50 9.9 43 6.1 77 77 NNW 3 6 29.82 1010 10 16 0.00 0.00
7:58 pm 19:58 Mostly Cloudy 49 9.4 43 6.2 81 81 Calm 29.85 1011 10 16 0.00 0.00
8:58 pm 20:58 Partly Cloudy 49 9.3 42 5.5 77 77 NW 6 9 29.84 1010 10 16 0.00 0.00
9:58 pm 21:58 Clear 49 9.5 42 5.3 75 75 S 15 24 29.84 1010 10 16 0.00 0.00
10:58 pm 22:58 Clear 48 9 40 4.7 75 75 S 14 22 29.84 1010 10 16 0.00 0.00
11:58 pm 23:58 Clear 48 9 40 4.4 73 73 S 15 24 29.82 1010 10 16 0.00 0.00

Powered by AerisWeather